Wetterdaten: Woche 21.01.13 - 27.01.13 (KW4)
Datum Zeit Temperatur Luftfeuchte Luftdruck Niederschlag Windrichtung Sonnenschein Solar Wind
21.01.2013 00:00 -5,8 C 95 % 996,0 hPa 0,0 l/m SW 0,00 h 0 W/m 3,5 km/h (1 Bft)
21.01.2013 01:00 -5,7 C 95 % 996,2 hPa 0,0 l/m N 0,00 h 0 W/m 2,9 km/h (1 Bft)
21.01.2013 02:00 -5,3 C 96 % 996,7 hPa 0,0 l/m N 0,00 h 0 W/m 1,6 km/h (1 Bft)
21.01.2013 03:00 -4,7 C 96 % 997,0 hPa 0,0 l/m N 0,00 h 0 W/m 0,5 km/h (0 Bft)
21.01.2013 04:00 -3,8 C 96 % 997,2 hPa 0,4 l/m N 0,00 h 0 W/m 0,0 km/h (0 Bft)
21.01.2013 05:00 -3,3 C 97 % 997,2 hPa 0,0 l/m N 0,00 h 0 W/m 0,0 km/h (0 Bft)
21.01.2013 06:00 -3,1 C 97 % 997,4 hPa 0,0 l/m N 0,00 h 0 W/m 0,0 km/h (0 Bft)
21.01.2013 07:00 -2,8 C 97 % 997,9 hPa 0,2 l/m N 0,00 h 0 W/m 0,0 km/h (0 Bft)
21.01.2013 08:00 -2,7 C 97 % 998,6 hPa 0,0 l/m N 0,00 h 9 W/m 0,0 km/h (0 Bft)
21.01.2013 09:00 -2,2 C 97 % 998,8 hPa 0,0 l/m SW 0,00 h 37 W/m 0,4 km/h (0 Bft)
21.01.2013 10:00 -1,3 C 97 % 998,8 hPa 0,2 l/m SW 0,00 h 76 W/m 2,8 km/h (1 Bft)
21.01.2013 11:00 -0,3 C 97 % 998,7 hPa 0,0 l/m S-SW 0,00 h 127 W/m 4,8 km/h (1 Bft)
21.01.2013 12:00 0,4 C 95 % 998,4 hPa 0,0 l/m S-SW 0,08 h 150 W/m 5,3 km/h (1 Bft)
21.01.2013 13:00 0,6 C 91 % 998,2 hPa 0,0 l/m SW 0,00 h 112 W/m 5,6 km/h (1 Bft)
21.01.2013 14:00 0,2 C 91 % 998,3 hPa 0,0 l/m SW 0,00 h 71 W/m 4,3 km/h (1 Bft)
21.01.2013 15:00 0,1 C 92 % 998,5 hPa 0,0 l/m SW 0,00 h 62 W/m 6,8 km/h (2 Bft)
21.01.2013 16:00 -0,4 C 91 % 998,8 hPa 0,0 l/m SW 0,00 h 22 W/m 7,6 km/h (2 Bft)
21.01.2013 17:00 -0,8 C 92 % 998,9 hPa 0,0 l/m SW 0,00 h 0 W/m 8,6 km/h (2 Bft)
21.01.2013 18:00 -1,1 C 94 % 999,1 hPa 0,0 l/m SW 0,00 h 0 W/m 4,5 km/h (1 Bft)
21.01.2013 19:00 -1,3 C 94 % 999,6 hPa 0,0 l/m N 0,00 h 0 W/m 2,1 km/h (1 Bft)
21.01.2013 20:00 -1,6 C 94 % 999,8 hPa 0,0 l/m N 0,00 h 0 W/m 0,3 km/h (0 Bft)
21.01.2013 21:00 -1,7 C 95 % 999,9 hPa 0,0 l/m SW 0,00 h 0 W/m 2,7 km/h (1 Bft)
21.01.2013 22:00 -0,9 C 96 % 999,9 hPa 0,0 l/m SW 0,00 h 0 W/m 8,7 km/h (2 Bft)
21.01.2013 23:00 -0,5 C 95 % 1000,1 hPa 0,0 l/m SW 0,00 h 0 W/m 7,6 km/h (2 Bft)
22.01.2013 00:00 -0,1 C 95 % 1000,2 hPa 0,0 l/m W-SW 0,00 h 0 W/m 12,6 km/h (3 Bft)
22.01.2013 01:00 0,0 C 93 % 1000,2 hPa 0,0 l/m W-SW 0,00 h 0 W/m 5,0 km/h (1 Bft)
22.01.2013 02:00 -1,1 C 92 % 1000,6 hPa 0,0 l/m W-SW 0,00 h 0 W/m 4,0 km/h (1 Bft)
22.01.2013 03:00 -1,4 C 94 % 1000,7 hPa 0,0 l/m SW 0,00 h 0 W/m 6,8 km/h (2 Bft)
22.01.2013 04:00 -1,4 C 95 % 1001,1 hPa 0,0 l/m SW 0,00 h 0 W/m 6,3 km/h (2 Bft)
22.01.2013 05:00 0,1 C 96 % 1001,1 hPa 0,0 l/m W-SW 0,00 h 0 W/m 16,1 km/h (3 Bft)
22.01.2013 06:00 0,6 C 95 % 1001,5 hPa 0,0 l/m SW 0,00 h 0 W/m 11,8 km/h (2 Bft)
22.01.2013 07:00 -0,2 C 94 % 1001,9 hPa 0,0 l/m SW 0,00 h 0 W/m 10,1 km/h (2 Bft)
22.01.2013 08:00 -0,4 C 95 % 1002,4 hPa 0,0 l/m SW 0,00 h 11 W/m 9,1 km/h (2 Bft)
22.01.2013 09:00 0,2 C 95 % 1003,2 hPa 0,0 l/m SW 0,00 h 40 W/m 16,6 km/h (3 Bft)
22.01.2013 10:00 0,8 C 90 % 1003,7 hPa 0,0 l/m SW 0,00 h 103 W/m 16,9 km/h (3 Bft)
22.01.2013 11:00 1,2 C 87 % 1004,1 hPa 0,0 l/m W-SW 0,17 h 179 W/m 15,6 km/h (3 Bft)
22.01.2013 12:00 1,6 C 85 % 1003,9 hPa 0,0 l/m SW 0,58 h 280 W/m 16,1 km/h (3 Bft)
22.01.2013 13:00 2,2 C 82 % 1003,8 hPa 0,0 l/m W-SW 0,83 h 316 W/m 15,6 km/h (3 Bft)
22.01.2013 14:00 2,0 C 82 % 1003,6 hPa 0,0 l/m SW 0,83 h 271 W/m 11,5 km/h (2 Bft)
22.01.2013 15:00 1,9 C 82 % 1003,9 hPa 0,0 l/m SW 0,58 h 157 W/m 12,1 km/h (2 Bft)
22.01.2013 16:00 1,1 C 84 % 1004,1 hPa 0,0 l/m SW 0,17 h 26 W/m 11,2 km/h (2 Bft)
22.01.2013 17:00 -0,0 C 86 % 1004,4 hPa 0,0 l/m W-SW 0,00 h 5 W/m 6,3 km/h (2 Bft)
22.01.2013 18:00 -0,8 C 88 % 1004,8 hPa 0,0 l/m N 0,00 h 0 W/m 0,3 km/h (0 Bft)
22.01.2013 19:00 -1,3 C 90 % 1005,2 hPa 0,0 l/m N 0,00 h 0 W/m 0,0 km/h (0 Bft)
22.01.2013 20:00 -1,6 C 91 % 1005,2 hPa 0,0 l/m N 0,00 h 0 W/m 0,0 km/h (0 Bft)
22.01.2013 21:00 -2,3 C 91 % 1005,3 hPa 0,0 l/m N 0,00 h 0 W/m 0,0 km/h (0 Bft)
22.01.2013 22:00 -3,2 C 91 % 1005,3 hPa 0,0 l/m N 0,00 h 0 W/m 0,0 km/h (0 Bft)
22.01.2013 23:00 -4,1 C 92 % 1005,4 hPa 0,0 l/m N 0,00 h 0 W/m 0,0 km/h (0 Bft)
23.01.2013 00:00 -4,2 C 93 % 1005,3 hPa 0,0 l/m N 0,00 h 0 W/m 0,0 km/h (0 Bft)
23.01.2013 01:00 -4,3 C 94 % 1005,4 hPa 0,0 l/m N 0,00 h 0 W/m 0,0 km/h (0 Bft)
23.01.2013 02:00 -4,8 C 93 % 1005,5 hPa 0,0 l/m N 0,00 h 0 W/m 0,0 km/h (0 Bft)
23.01.2013 03:00 -5,4 C 94 % 1005,6 hPa 0,0 l/m N 0,00 h 0 W/m 0,9 km/h (0 Bft)
23.01.2013 04:00 -5,5 C 94 % 1005,6 hPa 0,0 l/m N 0,00 h 0 W/m 0,5 km/h (0 Bft)
23.01.2013 05:00 -5,0 C 95 % 1005,5 hPa 0,0 l/m N 0,00 h 0 W/m 0,8 km/h (0 Bft)
23.01.2013 06:00 -4,6 C 96 % 1005,3 hPa 0,0 l/m N 0,00 h 0 W/m 1,3 km/h (1 Bft)
23.01.2013 07:00 -4,5 C 95 % 1005,3 hPa 0,0 l/m N 0,00 h 0 W/m 0,5 km/h (0 Bft)
23.01.2013 08:00 -5,3 C 95 % 1005,6 hPa 0,0 l/m N 0,00 h 24 W/m 0,1 km/h (0 Bft)
23.01.2013 09:00 -5,7 C 95 % 1006,0 hPa 0,0 l/m W-SW 0,00 h 59 W/m 3,5 km/h (1 Bft)
23.01.2013 10:00 -5,5 C 96 % 1006,4 hPa 0,0 l/m NW 0,83 h 237 W/m 6,3 km/h (2 Bft)
23.01.2013 11:00 -3,4 C 95 % 1006,3 hPa 0,0 l/m NW 1,00 h 351 W/m 4,7 km/h (1 Bft)
23.01.2013 12:00 -0,7 C 87 % 1006,0 hPa 0,0 l/m N 1,00 h 396 W/m 4,7 km/h (1 Bft)
23.01.2013 13:00 0,9 C 78 % 1005,6 hPa 0,0 l/m N-NO 1,00 h 381 W/m 4,9 km/h (1 Bft)
23.01.2013 14:00 1,7 C 76 % 1005,4 hPa 0,0 l/m N-NO 1,00 h 289 W/m 5,3 km/h (1 Bft)
23.01.2013 15:00 2,0 C 76 % 1005,5 hPa 0,0 l/m NO 1,00 h 191 W/m 4,7 km/h (1 Bft)
23.01.2013 16:00 1,5 C 77 % 1005,9 hPa 0,0 l/m NO 0,75 h 50 W/m 3,2 km/h (1 Bft)
23.01.2013 17:00 -0,0 C 79 % 1006,2 hPa 0,0 l/m N 0,00 h 5 W/m 1,7 km/h (1 Bft)
23.01.2013 18:00 -1,8 C 85 % 1006,4 hPa 0,0 l/m NO 0,00 h 0 W/m 3,7 km/h (1 Bft)
23.01.2013 19:00 -2,9 C 89 % 1006,5 hPa 0,0 l/m NO 0,00 h 0 W/m 3,9 km/h (1 Bft)
23.01.2013 20:00 -3,6 C 90 % 1006,6 hPa 0,0 l/m NO 0,00 h 0 W/m 3,2 km/h (1 Bft)
23.01.2013 21:00 -4,1 C 92 % 1006,7 hPa 0,0 l/m N 0,00 h 0 W/m 4,0 km/h (1 Bft)
23.01.2013 22:00 -4,5 C 93 % 1007,0 hPa 0,0 l/m N 0,00 h 0 W/m 0,8 km/h (0 Bft)
23.01.2013 23:00 -4,4 C 94 % 1007,1 hPa 0,0 l/m N 0,00 h 0 W/m 1,5 km/h (1 Bft)
24.01.2013 00:00 -3,5 C 95 % 1007,1 hPa 0,0 l/m N 0,00 h 0 W/m 0,7 km/h (0 Bft)
24.01.2013 01:00 -3,0 C 95 % 1006,7 hPa 0,0 l/m N 0,00 h 0 W/m 0,4 km/h (0 Bft)
24.01.2013 02:00 -2,8 C 95 % 1006,5 hPa 0,0 l/m N 0,00 h 0 W/m 0,9 km/h (0 Bft)
24.01.2013 03:00 -2,8 C 95 % 1006,2 hPa 0,0 l/m N 0,00 h 0 W/m 0,0 km/h (0 Bft)
24.01.2013 04:00 -2,6 C 96 % 1006,2 hPa 0,0 l/m N 0,00 h 0 W/m 0,3 km/h (0 Bft)
24.01.2013 05:00 -2,3 C 96 % 1006,3 hPa 0,0 l/m N 0,00 h 0 W/m 0,9 km/h (0 Bft)
24.01.2013 06:00 -2,1 C 96 % 1006,2 hPa 0,0 l/m NO 0,00 h 0 W/m 3,3 km/h (1 Bft)
24.01.2013 07:00 -1,9 C 95 % 1006,6 hPa 0,0 l/m NO 0,00 h 0 W/m 6,3 km/h (2 Bft)
24.01.2013 08:00 -1,9 C 94 % 1007,3 hPa 0,0 l/m NO 0,00 h 8 W/m 7,9 km/h (2 Bft)
24.01.2013 09:00 -2,1 C 94 % 1007,6 hPa 0,0 l/m O-NO 0,00 h 24 W/m 9,5 km/h (2 Bft)
24.01.2013 10:00 -2,2 C 94 % 1008,2 hPa 0,0 l/m O-NO 0,00 h 50 W/m 10,6 km/h (2 Bft)
24.01.2013 11:00 -2,2 C 90 % 1008,7 hPa 0,0 l/m NO 0,00 h 61 W/m 9,1 km/h (2 Bft)
24.01.2013 12:00 -2,0 C 88 % 1008,8 hPa 0,0 l/m NO 0,00 h 67 W/m 9,2 km/h (2 Bft)
24.01.2013 13:00 -1,8 C 85 % 1008,7 hPa 0,0 l/m NO 0,00 h 81 W/m 8,9 km/h (2 Bft)
24.01.2013 14:00 -1,7 C 82 % 1008,9 hPa 0,0 l/m N-NO 0,00 h 59 W/m 10,3 km/h (2 Bft)
24.01.2013 15:00 -1,7 C 82 % 1009,3 hPa 0,0 l/m N-NO 0,00 h 32 W/m 9,3 km/h (2 Bft)
24.01.2013 16:00 -1,7 C 83 % 1009,6 hPa 0,0 l/m N-NO 0,00 h 12 W/m 8,2 km/h (2 Bft)
24.01.2013 17:00 -1,9 C 84 % 1010,3 hPa 0,0 l/m NO 0,00 h 0 W/m 5,7 km/h (1 Bft)
24.01.2013 18:00 -2,1 C 86 % 1011,2 hPa 0,0 l/m NO 0,00 h 0 W/m 4,7 km/h (1 Bft)
24.01.2013 19:00 -2,2 C 87 % 1011,8 hPa 0,0 l/m NO 0,00 h 0 W/m 4,7 km/h (1 Bft)
24.01.2013 20:00 -2,2 C 89 % 1012,4 hPa 0,0 l/m NO 0,00 h 0 W/m 6,4 km/h (2 Bft)
24.01.2013 21:00 -2,2 C 89 % 1012,9 hPa 0,0 l/m NO 0,00 h 0 W/m 7,2 km/h (2 Bft)
24.01.2013 22:00 -2,3 C 89 % 1013,1 hPa 0,0 l/m N-NO 0,00 h 0 W/m 8,3 km/h (2 Bft)
24.01.2013 23:00 -2,4 C 89 % 1013,6 hPa 0,0 l/m N-NO 0,00 h 0 W/m 3,7 km/h (1 Bft)
25.01.2013 00:00 -2,6 C 90 % 1014,0 hPa 0,0 l/m N-NO 0,00 h 0 W/m 5,3 km/h (1 Bft)
25.01.2013 01:00 -2,8 C 90 % 1014,2 hPa 0,0 l/m N-NO 0,00 h 0 W/m 5,7 km/h (1 Bft)
25.01.2013 02:00 -3,0 C 90 % 1015,0 hPa 0,0 l/m N-NO 0,00 h 0 W/m 5,3 km/h (1 Bft)
25.01.2013 03:00 -3,3 C 90 % 1015,3 hPa 0,0 l/m N-NO 0,00 h 0 W/m 6,8 km/h (2 Bft)
25.01.2013 04:00 -3,7 C 91 % 1015,5 hPa 0,0 l/m N-NO 0,00 h 0 W/m 5,3 km/h (1 Bft)
25.01.2013 05:00 -3,9 C 91 % 1015,5 hPa 0,0 l/m NO 0,00 h 0 W/m 6,3 km/h (2 Bft)
25.01.2013 06:00 -4,2 C 91 % 1015,8 hPa 0,0 l/m NO 0,00 h 0 W/m 7,1 km/h (2 Bft)
25.01.2013 07:00 -4,3 C 92 % 1016,3 hPa 0,0 l/m NO 0,00 h 0 W/m 6,0 km/h (2 Bft)
25.01.2013 08:00 -4,5 C 92 % 1016,8 hPa 0,0 l/m NO 0,00 h 12 W/m 5,2 km/h (1 Bft)
25.01.2013 09:00 -4,4 C 92 % 1016,9 hPa 0,0 l/m NO 0,00 h 46 W/m 4,3 km/h (1 Bft)
25.01.2013 10:00 -4,2 C 90 % 1017,2 hPa 0,0 l/m NO 0,00 h 67 W/m 5,5 km/h (1 Bft)
25.01.2013 11:00 -4,0 C 87 % 1017,5 hPa 0,0 l/m O-NO 0,00 h 93 W/m 9,7 km/h (2 Bft)
25.01.2013 12:00 -3,8 C 85 % 1017,2 hPa 0,0 l/m O-NO 0,00 h 129 W/m 8,7 km/h (2 Bft)
25.01.2013 13:00 -3,7 C 86 % 1017,0 hPa 0,0 l/m O-NO 0,00 h 113 W/m 5,6 km/h (1 Bft)
25.01.2013 14:00 -3,6 C 85 % 1016,9 hPa 0,0 l/m O-NO 0,00 h 98 W/m 3,9 km/h (1 Bft)
25.01.2013 15:00 -3,6 C 84 % 1016,9 hPa 0,0 l/m O-NO 0,00 h 64 W/m 5,1 km/h (1 Bft)
25.01.2013 16:00 -3,6 C 85 % 1016,9 hPa 0,0 l/m O-NO 0,00 h 22 W/m 3,9 km/h (1 Bft)
25.01.2013 17:00 -4,0 C 86 % 1016,9 hPa 0,0 l/m N 0,00 h 5 W/m 1,2 km/h (1 Bft)
25.01.2013 18:00 -5,2 C 84 % 1016,8 hPa 0,0 l/m N 0,00 h 0 W/m 0,0 km/h (0 Bft)
25.01.2013 19:00 -6,6 C 85 % 1016,9 hPa 0,0 l/m N 0,00 h 0 W/m 0,1 km/h (0 Bft)
25.01.2013 20:00 -7,4 C 88 % 1016,8 hPa 0,0 l/m N 0,00 h 0 W/m 0,8 km/h (0 Bft)
25.01.2013 21:00 -7,3 C 91 % 1016,4 hPa 0,0 l/m O-NO 0,00 h 0 W/m 2,8 km/h (1 Bft)
25.01.2013 22:00 -6,5 C 92 % 1015,8 hPa 0,0 l/m O-NO 0,00 h 0 W/m 7,2 km/h (2 Bft)
25.01.2013 23:00 -6,3 C 92 % 1015,0 hPa 0,0 l/m O 0,00 h 0 W/m 5,7 km/h (1 Bft)
26.01.2013 00:00 -6,0 C 92 % 1014,3 hPa 0,0 l/m O 0,00 h 0 W/m 5,3 km/h (1 Bft)
26.01.2013 01:00 -5,8 C 92 % 1013,4 hPa 0,0 l/m O-NO 0,00 h 0 W/m 7,0 km/h (2 Bft)
26.01.2013 02:00 -5,8 C 92 % 1012,4 hPa 0,0 l/m O 0,00 h 0 W/m 9,3 km/h (2 Bft)
26.01.2013 03:00 -6,0 C 92 % 1011,6 hPa 0,0 l/m O 0,00 h 0 W/m 8,6 km/h (2 Bft)
26.01.2013 04:00 -6,1 C 91 % 1011,2 hPa 0,0 l/m O-SO 0,00 h 0 W/m 6,7 km/h (2 Bft)
26.01.2013 05:00 -6,0 C 91 % 1011,7 hPa 0,0 l/m O 0,00 h 0 W/m 7,1 km/h (2 Bft)
26.01.2013 06:00 -5,8 C 90 % 1012,3 hPa 0,0 l/m O 0,00 h 0 W/m 10,1 km/h (2 Bft)
26.01.2013 07:00 -5,6 C 89 % 1012,6 hPa 0,0 l/m O-SO 0,00 h 0 W/m 8,7 km/h (2 Bft)
26.01.2013 08:00 -5,5 C 89 % 1013,2 hPa 0,0 l/m O-SO 0,00 h 14 W/m 5,2 km/h (1 Bft)
26.01.2013 09:00 -5,1 C 87 % 1013,4 hPa 0,0 l/m O-SO 0,00 h 48 W/m 5,4 km/h (1 Bft)
26.01.2013 10:00 -4,7 C 84 % 1013,1 hPa 0,0 l/m S-SO 0,00 h 95 W/m 6,5 km/h (2 Bft)
26.01.2013 11:00 -4,2 C 83 % 1012,9 hPa 0,0 l/m SW 0,50 h 235 W/m 8,6 km/h (2 Bft)
26.01.2013 12:00 -3,9 C 81 % 1013,0 hPa 0,0 l/m SW 0,75 h 332 W/m 6,5 km/h (2 Bft)
26.01.2013 13:00 -3,2 C 78 % 1013,5 hPa 0,0 l/m SW 0,92 h 332 W/m 7,1 km/h (2 Bft)
26.01.2013 14:00 -2,8 C 77 % 1014,3 hPa 0,0 l/m N-NW 1,00 h 271 W/m 7,0 km/h (2 Bft)
26.01.2013 15:00 -2,8 C 77 % 1015,0 hPa 0,0 l/m SW 0,92 h 155 W/m 9,7 km/h (2 Bft)
26.01.2013 16:00 -3,5 C 80 % 1014,9 hPa 0,0 l/m SW 0,33 h 45 W/m 8,7 km/h (2 Bft)
26.01.2013 17:00 -4,3 C 82 % 1015,3 hPa 0,0 l/m S-SW 0,08 h 10 W/m 5,1 km/h (1 Bft)
26.01.2013 18:00 -5,2 C 84 % 1015,7 hPa 0,0 l/m N 0,00 h 0 W/m 1,6 km/h (1 Bft)
26.01.2013 19:00 -6,0 C 86 % 1016,2 hPa 0,0 l/m N 0,00 h 0 W/m 1,6 km/h (1 Bft)
26.01.2013 20:00 -6,4 C 88 % 1016,5 hPa 0,0 l/m N 0,00 h 0 W/m 1,2 km/h (1 Bft)
26.01.2013 21:00 -6,6 C 90 % 1017,1 hPa 0,0 l/m N 0,00 h 0 W/m 2,7 km/h (1 Bft)
26.01.2013 22:00 -6,7 C 91 % 1017,2 hPa 0,0 l/m S-SW 0,00 h 0 W/m 3,7 km/h (1 Bft)
26.01.2013 23:00 -6,1 C 93 % 1017,5 hPa 0,0 l/m S-SW 0,00 h 0 W/m 4,5 km/h (1 Bft)
27.01.2013 00:00 -4,9 C 94 % 1017,5 hPa 0,0 l/m N 0,00 h 0 W/m 2,7 km/h (1 Bft)
27.01.2013 01:00 -4,1 C 94 % 1017,0 hPa 0,0 l/m S-SW 0,00 h 0 W/m 3,6 km/h (1 Bft)
27.01.2013 02:00 -3,6 C 92 % 1016,8 hPa 0,0 l/m N 0,00 h 0 W/m 1,6 km/h (1 Bft)
27.01.2013 03:00 -3,5 C 90 % 1016,4 hPa 0,0 l/m S-SW 0,00 h 0 W/m 3,5 km/h (1 Bft)
27.01.2013 04:00 -4,3 C 88 % 1016,1 hPa 0,0 l/m N 0,00 h 0 W/m 1,9 km/h (1 Bft)
27.01.2013 05:00 -5,1 C 89 % 1015,6 hPa 0,0 l/m S-SW 0,00 h 0 W/m 2,1 km/h (1 Bft)
27.01.2013 06:00 -5,1 C 92 % 1014,9 hPa 0,0 l/m S-SW 0,00 h 0 W/m 5,5 km/h (1 Bft)
27.01.2013 07:00 -4,6 C 93 % 1014,3 hPa 0,0 l/m SW 0,00 h 5 W/m 2,9 km/h (1 Bft)
27.01.2013 08:00 -5,1 C 92 % 1013,7 hPa 0,0 l/m N 0,08 h 34 W/m 1,2 km/h (1 Bft)
27.01.2013 09:00 -2,8 C 88 % 1013,1 hPa 0,0 l/m S 0,00 h 64 W/m 6,1 km/h (2 Bft)
27.01.2013 10:00 -1,7 C 83 % 1012,7 hPa 0,0 l/m S-SO 0,08 h 114 W/m 9,7 km/h (2 Bft)
27.01.2013 11:00 -0,9 C 79 % 1012,0 hPa 0,0 l/m S-SO 0,58 h 228 W/m 10,7 km/h (2 Bft)
27.01.2013 12:00 0,0 C 76 % 1011,1 hPa 0,0 l/m S 0,08 h 166 W/m 12,4 km/h (3 Bft)
27.01.2013 13:00 1,1 C 72 % 1010,0 hPa 0,0 l/m S 0,00 h 153 W/m 9,9 km/h (2 Bft)
27.01.2013 14:00 1,5 C 72 % 1009,3 hPa 0,0 l/m S 0,00 h 80 W/m 6,2 km/h (2 Bft)
27.01.2013 15:00 1,8 C 71 % 1009,1 hPa 0,0 l/m S 0,00 h 70 W/m 4,9 km/h (1 Bft)
27.01.2013 16:00 1,5 C 71 % 1008,5 hPa 0,0 l/m S-SW 0,00 h 20 W/m 9,5 km/h (2 Bft)
27.01.2013 17:00 1,1 C 72 % 1008,4 hPa 0,0 l/m S 0,00 h 0 W/m 8,1 km/h (2 Bft)
27.01.2013 18:00 1,0 C 74 % 1009,0 hPa 0,0 l/m SW 0,00 h 0 W/m 9,5 km/h (2 Bft)
27.01.2013 19:00 0,5 C 85 % 1009,2 hPa 0,4 l/m SW 0,00 h 0 W/m 9,3 km/h (2 Bft)
27.01.2013 20:00 0,0 C 91 % 1009,1 hPa 0,6 l/m SW 0,00 h 0 W/m 14,9 km/h (3 Bft)
27.01.2013 21:00 0,0 C 94 % 1008,9 hPa 0,8 l/m S-SW 0,00 h 0 W/m 14,5 km/h (3 Bft)
27.01.2013 22:00 0,3 C 96 % 1009,0 hPa 0,2 l/m S-SW 0,00 h 0 W/m 7,5 km/h (2 Bft)
27.01.2013 23:00 0,5 C 96 % 1009,2 hPa 0,0 l/m N 0,00 h 0 W/m 1,3 km/h (1 Bft)
Min-Datum _ 25.01.13 27.01.13 21.01.13 - - - - 21.01.13
_ Min-Zeit 20:30 14:35 00:05 - - - - 00:20
Minimum _ -7,6 C 70 % 995,7 hPa - - - - 0,0 km/h (0 Bft)
Max-Datum _ 22.01.13 21.01.13 27.01.13 27.01.13 - 21.01.13 22.01.13 22.01.13
_ Max-Zeit 15:00 10:20 00:00 21:00 - 12:50 13:30 09:50
Maximum _ 2,5 C 98 % 1017,8 hPa 0,8 l/m - 0,08 h 471 W/m 24,1 km/h
SW (4 Bft)
Durchschnitt _ -2,7 C 89 % 1008,4 hPa #2,8 l/m SW #15:10 h 111 W/m 5,4 km/h (1 Bft)